Time,TemperatureF,DewpointF,PressureIn,WindDirection,WindDirectionDegrees,WindSpeedMPH,WindSpeedGustMPH,Humidity,HourlyPrecipIn,Conditions,Clouds,dailyrainin,SoftwareType,DateUTC
2013-07-08 00:08:00,68.4,63.7,30.14,East,88,0.0,0.0,85,0.00,CLR,,0.00,WeatherDisplay:10.37,2013-07-08 04:08:00,
2013-07-08 00:18:00,68.4,63.7,30.14,East,88,0.0,0.0,85,0.00,CLR,,0.00,WeatherDisplay:10.37,2013-07-08 04:18:00,
2013-07-08 00:28:00,68.5,63.8,30.14,East,91,0.0,0.0,85,0.00,CLR,,0.00,WeatherDisplay:10.37,2013-07-08 04:28:00,
2013-07-08 00:38:00,68.5,63.8,30.14,ENE,77,0.0,0.0,85,0.00,CLR,,0.00,WeatherDisplay:10.37,2013-07-08 04:38:00,
2013-07-08 00:48:00,68.7,64.0,30.14,NNE,12,0.0,0.0,85,0.00,CLR,,0.00,WeatherDisplay:10.37,2013-07-08 04:48:00,
2013-07-08 00:58:00,68.9,64.2,30.14,NNW,348,0.0,0.0,85,0.00,CLR,,0.00,WeatherDisplay:10.37,2013-07-08 04:58:00,
2013-07-08 01:08:00,68.9,64.2,30.14,NNW,348,0.0,0.0,85,0.00,CLR,,0.00,WeatherDisplay:10.37,2013-07-08 05:08:00,
2013-07-08 01:18:00,68.7,64.0,30.14,NNW,348,0.0,0.0,85,0.00,CLR,,0.00,WeatherDisplay:10.37,2013-07-08 05:18:00,
2013-07-08 01:28:00,68.6,63.9,30.14,NNW,348,0.0,0.0,85,0.00,CLR,,0.00,WeatherDisplay:10.37,2013-07-08 05:28:00,
2013-07-08 01:38:00,68.4,63.7,30.14,NNW,348,0.0,0.0,85,0.00,CLR,,0.00,WeatherDisplay:10.37,2013-07-08 05:38:00,
2013-07-08 01:48:00,68.4,64.0,30.14,NW,325,0.0,2.0,86,0.00,CLR,,0.00,WeatherDisplay:10.37,2013-07-08 05:48:00,
2013-07-08 01:58:00,68.7,64.4,30.14,NW,310,0.0,0.0,86,0.00,CLR,,0.00,WeatherDisplay:10.37,2013-07-08 05:58:00,
2013-07-08 02:08:00,68.5,64.2,30.14,North,353,0.0,0.0,86,0.00,CLR,,0.00,WeatherDisplay:10.37,2013-07-08 06:08:00,
2013-07-08 02:18:00,68.2,63.8,30.14,North,353,0.0,0.0,86,0.00,CLR,,0.00,WeatherDisplay:10.37,2013-07-08 06:18:00,
2013-07-08 02:28:00,68.2,63.8,30.11,North,353,0.0,0.0,86,0.00,CLR,,0.00,WeatherDisplay:10.37,2013-07-08 06:28:00,
2013-07-08 02:38:00,67.8,63.5,30.11,North,353,0.0,0.0,86,0.00,CLR,,0.00,WeatherDisplay:10.37,2013-07-08 06:38:00,
2013-07-08 02:48:00,67.8,63.5,30.11,NW,317,0.0,0.0,86,0.00,CLR,,0.00,WeatherDisplay:10.37,2013-07-08 06:48:00,
2013-07-08 02:58:00,67.8,63.5,30.14,West,268,0.0,0.0,86,0.00,CLR,,0.00,WeatherDisplay:10.37,2013-07-08 06:58:00,
2013-07-08 03:08:00,67.8,63.8,30.14,West,268,0.0,0.0,87,0.00,CLR,,0.00,WeatherDisplay:10.37,2013-07-08 07:08:00,
2013-07-08 03:18:00,68.2,63.8,30.14,West,268,0.0,0.0,86,0.00,CLR,,0.00,WeatherDisplay:10.37,2013-07-08 07:18:00,
2013-07-08 03:28:00,68.4,64.0,30.14,West,268,0.0,0.0,86,0.00,CLR,,0.00,WeatherDisplay:10.37,2013-07-08 07:28:00,
2013-07-08 03:38:00,68.5,64.2,30.14,West,268,0.0,0.0,86,0.00,CLR,,0.00,WeatherDisplay:10.37,2013-07-08 07:38:00,
2013-07-08 03:48:00,68.9,64.9,30.14,NNW,347,0.0,0.0,87,0.00,CLR,,0.00,WeatherDisplay:10.37,2013-07-08 07:48:00,
2013-07-08 03:58:00,68.9,64.5,30.14,NNW,347,0.0,0.0,86,0.00,CLR,,0.00,WeatherDisplay:10.37,2013-07-08 07:58:00,
2013-07-08 04:08:00,68.9,64.9,30.14,NNW,340,0.0,0.0,87,0.00,CLR,,0.00,WeatherDisplay:10.37,2013-07-08 08:08:00,
2013-07-08 04:18:00,69.1,65.0,30.14,NNW,340,0.0,0.0,87,0.00,CLR,,0.00,WeatherDisplay:10.37,2013-07-08 08:18:00,
2013-07-08 04:28:00,69.1,65.0,30.14,NW,325,0.0,3.0,87,0.00,CLR,,0.00,WeatherDisplay:10.37,2013-07-08 08:28:00,
2013-07-08 04:38:00,68.9,64.9,30.14,NNW,334,0.0,3.0,87,0.00,CLR,,0.00,WeatherDisplay:10.37,2013-07-08 08:38:00,
2013-07-08 04:48:00,68.7,64.7,30.14,West,277,0.0,0.0,87,0.00,CLR,,0.00,WeatherDisplay:10.37,2013-07-08 08:48:00,
2013-07-08 04:58:00,68.7,64.7,30.14,West,269,0.0,0.0,87,0.00,CLR,,0.00,WeatherDisplay:10.37,2013-07-08 08:58:00,
2013-07-08 05:08:00,68.9,64.9,30.14,West,269,0.0,0.0,87,0.00,CLR,,0.00,WeatherDisplay:10.37,2013-07-08 09:08:00,
2013-07-08 05:18:00,68.9,64.9,30.14,West,269,0.0,0.0,87,0.00,CLR,,0.00,WeatherDisplay:10.37,2013-07-08 09:18:00,
2013-07-08 05:28:00,68.7,64.7,30.14,WSW,249,0.0,0.0,87,0.00,CLR,,0.00,WeatherDisplay:10.37,2013-07-08 09:28:00,
2013-07-08 05:38:00,68.5,64.5,30.14,South,176,0.0,0.0,87,0.00,CLR,,0.00,WeatherDisplay:10.37,2013-07-08 09:38:00,
2013-07-08 05:48:00,68.5,64.5,30.14,NNE,26,0.0,0.0,87,0.00,CLR,,0.00,WeatherDisplay:10.37,2013-07-08 09:48:00,
2013-07-08 05:58:00,68.5,64.5,30.14,NE,51,0.0,0.0,87,0.00,CLR,,0.00,WeatherDisplay:10.37,2013-07-08 09:58:00,
2013-07-08 06:08:00,68.5,64.5,30.14,SSE,158,0.0,0.0,87,0.00,CLR,,0.00,WeatherDisplay:10.37,2013-07-08 10:08:00,
2013-07-08 06:18:00,68.4,64.3,30.14,SSE,158,0.0,0.0,87,0.00,CLR,,0.00,WeatherDisplay:10.37,2013-07-08 10:18:00,
2013-07-08 06:28:00,68.2,64.2,30.14,SSE,158,0.0,0.0,87,0.00,CLR,,0.00,WeatherDisplay:10.37,2013-07-08 10:28:00,
2013-07-08 06:38:00,68.0,64.3,30.17,SSE,158,0.0,0.0,88,0.00,CLR,,0.00,WeatherDisplay:10.37,2013-07-08 10:38:00,
2013-07-08 06:48:00,67.8,64.1,30.17,ESE,122,0.0,0.0,88,0.00,CLR,,0.00,WeatherDisplay:10.37,2013-07-08 10:48:00,
2013-07-08 06:58:00,67.6,64.0,30.14,ESE,120,0.0,0.0,88,0.00,CLR,,0.00,WeatherDisplay:10.37,2013-07-08 10:58:00,
2013-07-08 07:08:00,67.8,64.1,30.17,ESE,120,0.0,0.0,88,0.00,CLR,,0.00,WeatherDisplay:10.37,2013-07-08 11:08:00,
2013-07-08 07:18:00,68.0,64.3,30.17,ESE,120,0.0,0.0,88,0.00,CLR,,0.00,WeatherDisplay:10.37,2013-07-08 11:18:00,
2013-07-08 07:28:00,68.7,65.0,30.17,ESE,120,0.0,0.0,88,0.00,CLR,,0.00,WeatherDisplay:10.37,2013-07-08 11:28:00,
2013-07-08 07:38:00,68.9,65.2,30.17,ESE,108,0.0,0.0,88,0.00,CLR,,0.00,WeatherDisplay:10.37,2013-07-08 11:38:00,
2013-07-08 07:48:00,69.1,65.4,30.17,ESE,104,0.0,0.0,88,0.00,CLR,,0.00,WeatherDisplay:10.37,2013-07-08 11:48:00,
2013-07-08 07:58:00,69.4,65.7,30.17,SSW,194,0.0,0.0,88,0.00,CLR,,0.00,WeatherDisplay:10.37,2013-07-08 11:58:00,
2013-07-08 08:08:00,70.0,66.3,30.17,WSW,244,0.0,4.0,88,0.00,CLR,,0.00,WeatherDisplay:10.37,2013-07-08 12:08:00,
2013-07-08 08:18:00,70.2,66.4,30.17,West,263,0.0,4.0,88,0.00,CLR,,0.00,WeatherDisplay:10.37,2013-07-08 12:18:00,
2013-07-08 08:28:00,70.5,66.8,30.17,West,271,0.0,4.0,88,0.00,CLR,,0.00,WeatherDisplay:10.37,2013-07-08 12:28:00,
2013-07-08 08:38:00,70.3,66.6,30.17,WSW,250,0.0,4.0,88,0.00,CLR,,0.00,WeatherDisplay:10.37,2013-07-08 12:38:00,
2013-07-08 08:48:00,70.8,67.1,30.17,WSW,248,2.0,5.0,88,0.00,CLR,,0.00,WeatherDisplay:10.37,2013-07-08 12:48:00,
2013-07-08 08:58:00,71.4,67.6,30.17,WSW,251,5.0,6.0,88,0.00,CLR,,0.00,WeatherDisplay:10.37,2013-07-08 12:58:00,
2013-07-08 09:08:00,71.7,68.0,30.17,West,266,3.0,6.0,88,0.00,CLR,,0.00,WeatherDisplay:10.37,2013-07-08 13:08:00,
2013-07-08 09:18:00,72.6,68.8,30.17,WNW,287,5.0,8.0,88,0.00,CLR,,0.00,WeatherDisplay:10.37,2013-07-08 13:18:00,
2013-07-08 09:28:00,73.2,69.5,30.17,West,275,3.0,7.0,88,0.00,CLR,,0.00,WeatherDisplay:10.37,2013-07-08 13:28:00,
2013-07-08 09:38:00,73.8,69.6,30.17,WNW,291,5.0,6.0,87,0.00,CLR,,0.00,WeatherDisplay:10.37,2013-07-08 13:38:00,
2013-07-08 09:48:00,74.4,68.1,30.17,West,276,7.0,9.0,81,0.00,CLR,,0.00,WeatherDisplay:10.37,2013-07-08 13:48:00,
2013-07-08 09:58:00,74.8,66.4,30.17,West,272,5.0,8.0,75,0.00,CLR,,0.00,WeatherDisplay:10.37,2013-07-08 13:58:00,
2013-07-08 10:08:00,75.5,64.2,30.17,West,274,3.0,6.0,68,0.00,CLR,,0.00,WeatherDisplay:10.37,2013-07-08 14:08:00,
2013-07-08 10:18:00,75.5,62.0,30.17,WNW,288,3.0,6.0,63,0.00,CLR,,0.00,WeatherDisplay:10.37,2013-07-08 14:18:00,
2013-07-08 10:28:00,76.2,59.4,30.17,WNW,282,5.0,8.0,56,0.00,CLR,,0.00,WeatherDisplay:10.37,2013-07-08 14:28:00,
2013-07-08 10:38:00,76.8,59.4,30.17,WNW,286,2.0,8.0,55,0.00,CLR,,0.00,WeatherDisplay:10.37,2013-07-08 14:38:00,
2013-07-08 10:48:00,76.6,58.2,30.17,West,274,3.0,6.0,53,0.00,CLR,,0.00,WeatherDisplay:10.37,2013-07-08 14:48:00,
2013-07-08 10:58:00,76.3,58.4,30.17,WNW,299,3.0,6.0,54,0.00,CLR,,0.00,WeatherDisplay:10.37,2013-07-08 14:58:00,
2013-07-08 11:08:00,76.9,60.0,30.17,West,262,3.0,8.0,56,0.00,CLR,,0.00,WeatherDisplay:10.37,2013-07-08 15:08:00,
2013-07-08 11:18:00,77.9,56.0,30.17,West,271,6.0,10.0,47,0.00,CLR,,0.00,WeatherDisplay:10.37,2013-07-08 15:18:00,
2013-07-08 11:28:00,78.6,56.0,30.17,West,271,3.0,10.0,46,0.00,CLR,,0.00,WeatherDisplay:10.37,2013-07-08 15:28:00,
2013-07-08 11:38:00,79.1,55.3,30.17,WNW,288,6.0,10.0,44,0.00,CLR,,0.00,WeatherDisplay:10.37,2013-07-08 15:38:00,
2013-07-08 11:48:00,78.7,56.2,30.17,WNW,292,5.0,8.0,46,0.00,CLR,,0.00,WeatherDisplay:10.37,2013-07-08 15:48:00,
2013-07-08 11:58:00,79.0,55.2,30.17,West,271,5.0,6.0,44,0.00,CLR,,0.00,WeatherDisplay:10.37,2013-07-08 15:58:00,
2013-07-08 12:08:00,77.9,54.2,30.17,West,277,3.0,6.0,44,0.00,CLR,,0.00,WeatherDisplay:10.37,2013-07-08 16:08:00,
2013-07-08 12:18:00,77.5,54.5,30.17,West,259,6.0,6.0,45,0.00,CLR,,0.00,WeatherDisplay:10.37,2013-07-08 16:18:00,
2013-07-08 12:28:00,77.5,55.7,30.17,WNW,290,7.0,9.0,47,0.00,CLR,,0.00,WeatherDisplay:10.37,2013-07-08 16:28:00,
2013-07-08 12:38:00,71.8,54.3,30.17,North,357,8.0,23.0,54,0.25,RA,,0.25,WeatherDisplay:10.37,2013-07-08 16:38:00,
2013-07-08 12:48:00,69.5,57.2,30.17,ENE,73,3.0,12.0,65,0.00,CLR,,0.25,WeatherDisplay:10.37,2013-07-08 16:48:00,
2013-07-08 12:58:00,70.3,58.8,30.17,East,99,5.0,6.0,67,0.00,CLR,,0.25,WeatherDisplay:10.37,2013-07-08 16:58:00,
2013-07-08 13:18:00,74.3,65.5,30.17,ESE,117,7.0,9.0,74,0.00,CLR,,0.25,WeatherDisplay:10.37,2013-07-08 17:18:00,
2013-07-08 13:38:00,76.8,58.3,30.17,NNW,328,3.0,6.0,53,0.00,CLR,,0.25,WeatherDisplay:10.37,2013-07-08 17:38:00,
2013-07-08 13:48:00,78.8,55.0,30.17,WNW,290,7.0,8.0,44,0.00,CLR,,0.25,WeatherDisplay:10.37,2013-07-08 17:48:00,
2013-07-08 13:58:00,79.8,54.0,30.14,WNW,296,2.0,8.0,41,0.00,CLR,,0.25,WeatherDisplay:10.37,2013-07-08 17:58:00,
2013-07-08 14:18:00,80.6,50.4,30.14,WNW,291,5.0,8.0,35,0.00,CLR,,0.25,WeatherDisplay:10.37,2013-07-08 18:18:00,
2013-07-08 14:28:00,81.1,47.6,30.14,WNW,291,6.0,9.0,31,0.00,CLR,,0.25,WeatherDisplay:10.37,2013-07-08 18:28:00,
2013-07-08 14:48:00,82.2,47.7,30.14,WNW,284,7.0,10.0,30,0.00,CLR,,0.25,WeatherDisplay:10.37,2013-07-08 18:48:00,
2013-07-08 14:58:00,82.3,48.6,30.14,WNW,302,3.0,6.0,31,0.00,CLR,,0.25,WeatherDisplay:10.37,2013-07-08 18:58:00,
2013-07-08 15:08:00,82.8,48.2,30.14,NW,305,3.0,10.0,30,0.00,CLR,,0.25,WeatherDisplay:10.37,2013-07-08 19:08:00,
2013-07-08 15:18:00,83.1,48.5,30.14,WNW,290,3.0,8.0,30,0.00,CLR,,0.25,WeatherDisplay:10.37,2013-07-08 19:18:00,
2013-07-08 15:28:00,83.5,47.9,30.14,WNW,287,8.0,8.0,29,0.00,CLR,,0.25,WeatherDisplay:10.37,2013-07-08 19:28:00,
2013-07-08 15:38:00,83.6,47.0,30.14,WNW,290,7.0,9.0,28,0.00,CLR,,0.25,WeatherDisplay:10.37,2013-07-08 19:38:00,
2013-07-08 15:48:00,83.8,45.3,30.14,WNW,296,6.0,9.0,26,0.00,CLR,,0.25,WeatherDisplay:10.37,2013-07-08 19:48:00,
2013-07-08 15:58:00,83.4,44.9,30.11,NW,313,6.0,9.0,26,0.00,CLR,,0.25,WeatherDisplay:10.37,2013-07-08 19:58:00,
2013-07-08 16:18:00,83.2,42.7,30.11,WNW,287,6.0,8.0,24,0.00,CLR,,0.25,WeatherDisplay:10.37,2013-07-08 20:18:00,
2013-07-08 16:28:00,83.7,48.9,30.11,West,280,5.0,8.0,30,0.00,CLR,,0.25,WeatherDisplay:10.37,2013-07-08 20:28:00,
2013-07-08 16:38:00,84.7,49.0,30.11,West,274,7.0,10.0,29,0.00,CLR,,0.25,WeatherDisplay:10.37,2013-07-08 20:38:00,
2013-07-08 16:58:00,84.2,48.5,30.11,WSW,253,2.0,6.0,29,0.00,CLR,,0.25,WeatherDisplay:10.37,2013-07-08 20:58:00,
2013-07-08 17:08:00,84.2,48.5,30.11,WSW,241,3.0,6.0,29,0.00,CLR,,0.25,WeatherDisplay:10.37,2013-07-08 21:08:00,
2013-07-08 17:28:00,83.7,48.0,30.11,WNW,292,1.0,6.0,29,0.00,CLR,,0.25,WeatherDisplay:10.37,2013-07-08 21:28:00,
2013-07-08 17:38:00,84.4,46.7,30.11,WSW,251,5.0,6.0,27,0.00,CLR,,0.25,WeatherDisplay:10.37,2013-07-08 21:38:00,
2013-07-08 17:48:00,84.7,49.0,30.11,SW,236,3.0,6.0,29,0.00,CLR,,0.25,WeatherDisplay:10.37,2013-07-08 21:48:00,
2013-07-08 17:58:00,83.2,46.7,30.11,WSW,253,2.0,6.0,28,0.00,CLR,,0.25,WeatherDisplay:10.37,2013-07-08 21:58:00,
2013-07-08 18:08:00,82.8,48.2,30.11,SW,226,2.0,4.0,30,0.00,CLR,,0.25,WeatherDisplay:10.37,2013-07-08 22:08:00,
2013-07-08 18:38:00,85.5,49.6,30.11,South,190,2.0,5.0,29,0.00,CLR,,0.25,WeatherDisplay:10.37,2013-07-08 22:38:00,
2013-07-08 18:48:00,85.5,47.7,30.11,South,187,0.0,5.0,27,0.00,CLR,,0.25,WeatherDisplay:10.37,2013-07-08 22:48:00,
2013-07-08 18:58:00,84.9,49.1,30.11,SW,215,0.0,5.0,29,0.00,CLR,,0.25,WeatherDisplay:10.37,2013-07-08 22:58:00,
2013-07-08 19:18:00,84.6,49.7,30.11,West,264,0.0,4.0,30,0.00,CLR,,0.25,WeatherDisplay:10.37,2013-07-08 23:18:00,
2013-07-08 19:28:00,84.0,49.2,30.11,SW,233,0.0,0.0,30,0.00,CLR,,0.25,WeatherDisplay:10.37,2013-07-08 23:28:00,
2013-07-08 19:48:00,83.5,50.5,30.11,SSE,160,2.0,4.0,32,0.00,CLR,,0.25,WeatherDisplay:10.37,2013-07-08 23:48:00,
2013-07-08 20:08:00,81.1,51.6,30.11,SE,127,3.0,5.0,36,0.00,CLR,,0.25,WeatherDisplay:10.37,2013-07-09 00:08:00,
2013-07-08 20:18:00,79.4,52.3,30.11,East,101,2.0,4.0,39,0.00,CLR,,0.25,WeatherDisplay:10.37,2013-07-09 00:18:00,
2013-07-08 20:48:00,75.7,52.9,30.11,East,93,2.0,4.0,45,0.00,CLR,,0.25,WeatherDisplay:10.37,2013-07-09 00:48:00,
2013-07-08 20:58:00,74.9,53.4,30.14,East,95,0.0,3.0,47,0.00,CLR,,0.25,WeatherDisplay:10.37,2013-07-09 00:58:00,
2013-07-08 21:28:00,72.9,54.8,30.14,ESE,110,2.0,4.0,53,0.00,CLR,,0.25,WeatherDisplay:10.37,2013-07-09 01:28:00,
2013-07-08 21:38:00,72.3,55.2,30.14,ESE,109,2.0,3.0,55,0.00,CLR,,0.25,WeatherDisplay:10.37,2013-07-09 01:38:00,
2013-07-08 22:08:00,72.0,57.3,30.14,ESE,109,0.0,0.0,60,0.00,CLR,,0.25,WeatherDisplay:10.37,2013-07-09 02:08:00,
2013-07-08 22:38:00,72.1,58.8,30.14,ESE,109,0.0,0.0,63,0.00,CLR,,0.25,WeatherDisplay:10.37,2013-07-09 02:38:00,
2013-07-08 22:48:00,72.3,59.5,30.14,ESE,109,0.0,0.0,64,0.00,CLR,,0.25,WeatherDisplay:10.37,2013-07-09 02:48:00,
2013-07-08 23:08:00,72.9,60.4,30.14,ESE,115,0.0,3.0,65,0.00,CLR,,0.25,WeatherDisplay:10.37,2013-07-09 03:08:00,
2013-07-08 23:18:00,72.7,60.2,30.14,ESE,115,0.0,2.0,65,0.00,CLR,,0.25,WeatherDisplay:10.37,2013-07-09 03:18:00,
2013-07-08 23:28:00,72.3,59.9,30.14,ESE,114,0.0,0.0,65,0.00,CLR,,0.25,WeatherDisplay:10.37,2013-07-09 03:28:00,